Location: Avenches
(46.8809°N, 7.0410°E)
Time: 12:39:21
(UTC+00:00)

X-37B - Pass Details

Date: 15 March 2021
Orbit: 380 x 394 km, 45.0° (Epoch: 07 April)

Event Time Altitude Azimuth Distance (km) Brightness Sun altitude
Rises 20:10:33 0° 268° (W) 2,275 5.4 -26.0°
Reaches altitude 10° 20:12:38 10° 264° (W) 1,422 4.1 -26.3°
Enters shadow 20:13:29 17° 262° (W) 1,084 3.4 -26.5°
